Skip Page Navigation
NASA JPL Caltech
NASA Logo - Jet Propulsion Laboratory + View the NASA Portal
+ Near-Earth Object (NEO) Program
Search JPL
JPL Home Earth Solar System Stars & Galaxies Technology
JPL Solar System Dynamics
BODIES ORBITS EPHEMERIDES TOOLS PHYSICAL DATA DISCOVERY FAQ SITE MAP
JPL Small-Body Database Browser
Search: [ help ]  
11762 Vogel (6044 P-L)
Classification: Main-belt Asteroid          SPK-ID: 2011762
Ephemeris | Orbit Diagram | Orbital Elements | Physical Parameters | Discovery Circumstances | Close-Approach Data ]

[ hide orbit diagram ]
Orbit Diagram
Note: Make sure you have Java enabled on your browser to see the applet. This applet is provided as a 3D orbit visualization tool. The applet was implemented using 2-body methods, and hence should not be used for determining accurate long-term trajectories (over several years or decades) or planetary encounter circumstances. For accurate long-term ephemerides, please instead use our Horizons system.
Orbit Viewer

Additional Notes: the orbits shown in the applet are color coded. The planets are white lines, and the asteroid/comet is a blue line. The bright white line indicates the portion of the orbit that is above the ecliptic plane, and the darker portion is below the ecliptic plane. Likewise for the asteroid/comet orbit, the light blue indicates the portion above the ecliptic plane, and the dark blue the portion below the ecliptic plane.

Orbit Viewer applet originally written and kindly provided by Osamu Ajiki (AstroArts), and further modified by Ron Baalke (JPL).


Orbital Elements at Epoch 2456400.5 (2013-Apr-18.0) TDB
Reference: JPL 1 (heliocentric ecliptic J2000)
 Element Value Uncertainty (1-sigma)   Units 
e .02810477496778755 5.7342e-08  
a 2.904314075688254 2.158e-08 AU
q 2.822688982155258 1.7233e-07 AU
i 1.292187862561521 6.3202e-06 deg
node 317.0285599423957 0.00023993 deg
peri 309.9216355425748 0.00027843 deg
M 312.4983623717416 0.00014496 deg
tp 2456639.044758233495
(2013-Dec-12.54475823)
0.00072839 JED
period 1807.855839331546
4.95
2.015e-05
5.517e-08
d
yr
n .1991309219285482 2.2194e-09 deg/d
Q 2.98593916922125 2.2187e-08 AU
  Orbit Determination Parameters
   # obs. used (total)      1227  
   data-arc span      19203 days (52.57 yr)  
   first obs. used      1960-09-24  
   last obs. used      2013-04-22  
   planetary ephem.      DE405  
   SB-pert. ephem.      SB405-CPV-2  
   condition code      0  
   fit RMS      .51769  
   data source      ORB  
   producer      Otto Matic  
   solution date      2013-Apr-29 13:46:00  

Additional Information
 Earth MOID = 1.80707 AU 
 T_jup = 3.285 
[ show covariance matrix ]

Ephemeris | Orbit Diagram | Orbital Elements | Physical Parameters | Discovery Circumstances | Close-Approach Data ]

Physical Parameter Table
Parameter Symbol Value Units Sigma Reference Notes
absolute magnitude H 13.1 mag n/a PDS3 (MPC 35900)  

11762 Vogel           Discovered 1960 Sept. 24 by C. J. van Houten and I. van Houten-Groeneveld on Palomar Schmidt plates taken by T. Gehrels.
Hermann Carl Vogel (1841-1907) was a German astronomer and spectroscopist. He invented an early scheme to classify stellar spectra and confirmed the sun's rotation. He directed the Potsdam Astrophysical Observatory from 1882 to 1907.
NOTE: some special characters may not display properly (any characters within {} are an attempt to place the proper accent above a character)
Reference: 20070926/MPCPages.arcLast Updated: 2007-09-30

[ show close-approach data ]
Alternate Designations
 6044 P-L = 1998 GB1 
Ephemeris | Orbit Diagram | Orbital Elements | Physical Parameters | Discovery Circumstances | Close-Approach Data ]
ABOUT SSD CREDITS/AWARDS PRIVACY/COPYRIGHT GLOSSARY LINKS
FirstGov 2013-Jun-19 21:52 UT
(server date/time)  
NASA Home Page
Site Manager:   Donald K. Yeomans
Webmaster  Alan B. Chamberlin